Back to catalog

STARLINK-11724

AliveCommunicationsVLEO
NORAD 64124·PAYLOAD·🇺🇸 United States

Launched May 24, 2025 from Cape Canaveral Space Force Station

Loading…

Next Passes (next 24 hours)

TLE

FreshSource: CelesTrak SupGP

Epoch: Sep 14, 2026, 14:57 UTC

1 64124C 25111B   26257.62340278  .00044563  00000+0  34622-3 0  2579
2 64124  43.0003 274.8896 0001479 276.1214 131.0993 15.70809554    18

Track STARLINK-11724 in real time with AllMySat

Download on the App Store